www.pogodaiklimat.ru

Погода и климат >> Архив погоды >> Россия >> Краснодарский край >> Анапа


АРХИВ ПОГОДЫ в Анапе

Время (UTC), дата Ветер
(напр.,м/с)
 
Видим.   Явления Облачность Т
(С)
Тd
(С)
f
(%)
Тe
(С)
Тes
(С)
Комфортность P
(гПа)
Po
(гПа)
Тmin
(С)
Tmax
(С)
R
(мм)
R24
(мм)
S
(см)
15 12.09 ЮВ 2
{14}
20 км ясно +29.9 +13.9 38 +32 +32 жарко 1010.1 1006.4 +30.3
18 12.09 В 2 10 км ясно +25.8 +11.9 42 +27 +27 жарко 1010.7 1007.0
21 12.09 Ю 4 10 км ясно +25.8 +19.3 67 +31 +31 очень
душно
1010.8 1007.0
00 13.09 ЮВ 2 10 км ясно +26.0 +16.1 54 +29 +29 душно 1011.0 1007.2
03 13.09 ЮВ 2 10 км ясно +25.1 +16.4 59 +29 +29 душно 1011.1 1007.3 +23.6
06 13.09 Ю 6 20 км ясно +26.6 +18.9 63 +32 +34 очень
душно
1011.9 1008.1 +21.2
09 13.09 Ю 6
{10}
20 км ясно +26.8 +21.5 73 +34 +39 очень
душно
1012.1 1008.3
12 13.09 Ю 7 20 км ясно +26.7 +22.5 78 +35 +37 очень
душно
1012.1 1008.3
15 13.09 Ю 7 10 км ясно +25.4 +22.8 86 +34 +34 очень
душно
1012.3 1008.6 +27.3
18 13.09 Ю 6 10 км ясно +24.4 +22.5 89 +32 +32 очень
душно
1013.1 1009.3
21 13.09 Ю 3 10 км ясно +24.2 +21.2 83 +31 +31 очень
душно
1013.8 1010.0
00 14.09 СЗ 2 10 км ясно +22.9 +17.1 70 +28 +28 душно 1015.3 1011.5
03 14.09 СВ 1 10 км ясно +20.2 +17.2 83 +24 +24 комфорт 1016.2 1012.3 +20.2
06 14.09 С 1 20 км ясно +23.9 +19.1 75 +29 +34 душно 1017.6 1013.8 +19.9
09 14.09 З 2 20 км 3/3 600 м
[Cu med, cong]
+26.0 +19.8 69 +32 +40 очень
душно
1017.9 1014.1
12 14.09 З 2 20 км 1/1 600 м
[Sc]
+26.7 +19.5 65 +32 +39 очень
душно
1016.9 1013.1
15 14.09 С 3 20 км ясно +26.2 +15.3 51 +29 +29 жарко 1016.0 1012.2 +27.3
18 14.09 СВ 3 10 км ясно +23.0 +12.0 50 +26 +26 жарко 1015.8 1011.9
21 14.09 СВ 3 10 км ясно +21.5 +12.2 55 +24 +24 комфорт 1015.0 1011.1
00 15.09 СВ 4 10 км ясно +21.2 +11.5 54 +23 +23 комфорт 1014.3 1010.4
03 15.09 В 4 10 км ясно +21.7 +10.8 50 +24 +24 комфорт 1013.6 1009.7 +21.1
06 15.09 СВ 4 20 км ясно +25.8 +10.1 37 +27 +30 жарко 1013.4 1009.6
09 15.09 З 2 20 км ясно +28.1 +18.1 55 +33 +44 очень
душно
1013.1 1009.4
12 15.09 СЗ 3 20 км ясно +28.6 +15.6 45 +31 +38 жарко 1012.8 1009.0
15 15.09 С 4 20 км ясно +27.4 +11.8 38 +29 +29 жарко 1012.7 1008.9 +30.0
18 15.09 СВ 3 10 км ясно +23.7 +10.8 44 +25 +25 комфорт 1013.9 1010.1
21 15.09 СВ 2 10 км ясно +22.3 +10.1 46 +24 +24 комфорт 1014.6 1010.8
00 16.09 СВ 3 10 км ясно +19.7 +9.9 53 +21 +21 комфорт 1015.7 1011.8
03 16.09 СВ 2 10 км ясно +19.2 +10.6 57 +21 +21 комфорт 1016.7 1012.8 +18.7
06 16.09 СВ 3 20 км ясно +24.4 +17.2 64 +28 +32 душно 1017.6 1013.8
09 16.09 С 1 20 км ясно +29.5 +15.8 43 +32 +46 душно 1017.3 1013.5
12 16.09 СВ 2 20 км ясно +31.6 +12.6 31 +32 +40 жарко 1016.1 1012.4
15 16.09 С 4 20 км ясно +27.6 +12.6 39 +29 +29 жарко 1016.0 1012.2 +31.8
18 16.09 СВ 2 10 км ясно +23.1 +14.4 58 +27 +27 душно 1016.7 1012.9
21 16.09 СВ 3 10 км ясно +22.1 +13.2 57 +25 +25 комфорт 1016.0 1012.1
00 17.09 СВ 2 10 км ясно +20.6 +13.0 62 +24 +24 комфорт 1015.6 1011.8
03 17.09 СВ 2 10 км ясно +20.9 +13.3 62 +24 +24 комфорт 1015.7 1011.8 +20.4
06 17.09 С 2 20 км ясно +25.3 +16.6 59 +29 +33 душно 1016.3 1012.5
09 17.09 ЮЗ 3 20 км ясно +26.7 +19.2 63 +32 +41 очень
душно
1015.6 1011.8
12 17.09 Ю 5 20 км ясно +27.4 +22.6 75 +36 +40 очень
душно
1014.4 1010.6
15 17.09 ЮЗ 3 10 км ясно +25.5 +22.8 85 +34 +34 очень
душно
1013.7 1010.0 +28.2
18 17.09 В 1 4000 м дымка ясно +23.5 +22.4 94 +31 +31 очень
душно
1013.1 1009.3
21 17.09 СВ 2 10 км ясно +22.7 +19.8 84 +29 +29 очень
душно
1012.0 1008.2
00 18.09 Ю 3 10 км ясно +23.7 +20.9 84 +30 +30 очень
душно
1011.9 1008.1
03 18.09 Ю 4 4000 м дымка ясно +23.7 +22.3 92 +31 +31 очень
душно
1012.0 1008.2 +20.3
06 18.09 Ю 7 10 км 3/3 600 м
[Sc]
+25.0 +21.9 83 +32 +33 очень
душно
1012.9 1009.1
09 18.09 Ю 6 10 км 1/1 600 м
[Sc]
+26.1 +21.5 76 +33 +37 очень
душно
1012.8 1009.1
12 18.09 Ю 6 10 км ясно +26.3 +21.7 76 +34 +37 очень
душно
1012.2 1008.4
15 18.09 Ю 4 10 км 1/1 600 м
[Sc]
+24.8 +20.9 79 +31 +31 очень
душно
1012.1 1008.3 +26.5
18 18.09 ЮЗ 2 10 км 1/1 600 м
[Sc]
+23.7 +20.9 84 +30 +30 очень
душно
1012.6 1008.8
21 18.09 ЮЗ 3 10 км 4/4 600 м
[Sc]
+23.2 +21.3 89 +31 +31 очень
душно
1012.7 1008.9
00 19.09 СВ 2 4000 м дымка 3/3 600 м
[Sc]
+20.7 +19.3 92 +26 +26 душно 1013.0 1009.2
03 19.09 СВ 1 4000 м дымка ясно +19.7 +18.6 93 +24 +24 комфорт 1013.2 1009.3 +19.7
06 19.09 Ю 1 10 км ясно +24.6 +21.0 80 +31 +36 очень
душно
1014.0 1010.2 +19.5
09 19.09 ЮЗ 3 10 км ясно +25.8 +21.8 79 +33 +42 очень
душно
1013.9 1010.1
12 19.09 З 2 10 км ясно +27.0 +21.8 73 +35 +42 очень
душно
1013.1 1009.3

 

Местоположение метеостанции Анапа (Краснодарский край, Россия): широта 44.88 долгота 37.28 высота над уровнем моря 32 м.

В архиве по умолчанию представлена погода в Анапе за последнюю неделю. Архивные данные за месяц целиком и за предыдущие месяцы, начиная с января 2011 года, Вы можете получить, выбрав интересующий диапазон дат из раскрывающегося списка и нажав кнопку "Ввод!".

Внимание! Время в таблицах - всемирное. Для получения местного времени необходимо прибавить поправку, которая в Анапе равна 3 ч.

Смотрите также архив погоды в соседних городах и на ближайших метеорологических станциях:

Погода в Новороссийске (Краснодарский край, Россия) (48 км)
Погода в Темрюке (Краснодарский край, Россия) (50 км)
Погода в Крымске (Краснодарский край, Россия) (57 км)
Погода в Тамани (Краснодарский край, Россия) (58 км)
Погода в Геленджике (Краснодарский край, Россия) (72 км)
Погода в Славянске-на-Кубани (Краснодарский край, Россия) (80 км)
Погода в Керчи (Крым, Россия) (86 км)
Погода в Джубге (Краснодарский край, Россия) (129 км)
Погода на Мысовом (Крым, Россия) (131 км)
Погода в Краснодаре (Краснодарский край, Россия) (139 км)

Пояснения к столбцам:

Ветер - указаны скорость ветра в м/с - средняя за 10 мин, порывы в срок и между сроками (в фигурных скобках) и направление, откуда дует ветер: С - северный, СВ - северо-восточный, В - восточный, ЮВ - юго-восточный, Ю - южный, ЮЗ - юго-западный, З - западный, СЗ - северо-западный.
Видимость - горизонтальная дальность видимости в метрах или километрах. При видимости от 1 до 10 км при отсутствии осадков обычно наблюдается дымка, при ухудшении видимости до 1 км и менее - туман. В сухую погоду видимость может ухудшаться дымом, пылью или мглою.
Явления - указаны атмосферные явления, наблюдавшиеся в срок или в последний час перед сроком; фигурными скобками обозначены явления, наблюдавшиеся между сроками (за 1-3 часа до срока); квадратными скобками обозначены град или гололедные отложения с указанием их диаметра в мм.
Облачность - указаны через наклонную черту общая и нижняя облачность в баллах и высота нижней границы облаков в метрах; квадратными скобками обозначены формы облаков: Ci - перистые, Cs - перисто-слоистые, Cc - перисто-кучевые, Ac - высококучевые, As - высокослоистые, Sc - слоисто-кучевые, Ns - слоисто-дождевые, Cu - кучевые, Cb - кучево-дождевые. Подробнее классификацию облаков см. в Атласе облаков (PDF).
T - Температура воздуха - температура, измеренная на высоте 2 м над землей.
Td - Температура точки росы - температура, при понижении до которой содержащийся в воздухе водяной пар достигнет насыщения.
f - Относительная влажность воздуха - влажноcть воздуха, измеренная на высоте 2 м над землей.
Te - Эффективная температура - температура, которую ощущает одетый по сезону человек в тени. Характеристика душности погоды. При расчете учитывается влияние влажности воздуха и скорости ветра на теплоощущения человека.
Tes - Эффективная температура на солнце - температура, которую ощущает человек, с поправкой на солнечный нагрев. Характеристика знойности погоды. Зависит от высоты солнца над горизонтом, облачности и скорости ветра. Ночью, в пасмурную погоду, а также при ветре 12 м/с и более поправка равна нулю.
P - Атмосферное давление - приведенное к уровню моря атмосферное давление.
Po - Атмосферное давление - измеренное на уровне метеостанции атмосферное давление.
Tmin - Минимальная температура - минимум температуры воздуха на высоте 2 м над землей.
Tmax - Максимальная температура - максимум температуры воздуха на высоте 2 м над землей.
R - Количество осадков - Количество выпавших осадков за период времени, мм. При наведении курсора мыши на число - период времени, за который выпало указанное количество осадков.
R24 - Количество осадков - Количество выпавших осадков за 24 часа, мм.
S - Снежный покров - Высота снежного покрова, см. При наведении курсора мыши на число - состояние снежного покрова и степень покрытия местности в баллах.